STARLINK-1139 (45065 NORAD) Tracking and Keplerian Element Data

This shows tracking and keplerian element data for the satellite.

Feedback or suggestion? Click here.




ElementValue
Catalog45065
NameSTARLINK-1139
Epoch Orbit1047
Epoch Day93.91667824
Epoch Year2020
RAAN277.2746
Inclination53.0019
Eccentricity0.000165
Argument of Perigee269.5317
Mean Anonmoly296.1328
Mean Motion15.51784306
Decay Rate0.03180477
L11 45065U 20006X 20093.91667824 .03180477 00000-0 45936-1 0 9993
L22 45065 53.0019 277.2746 0001650 269.5317 296.1328 15.51784306 10473

Live tracking and technical data element details for STARLINK-1139 (NORAD 45065). STARLINK-1139 can be tracked NOW for your location showing map with azimuth and elevation plus other details from your city location.

Track the satellite on the map from your city or location and see movement details for azimuth, elevation, latitude, longitude, range, height, and movement on the map or in text.







IsCatalogInMostPopularTable: catalog: 45065, numindb: 11
Update: records affected: 1



GetName: 45065 STARLINK-1139

Hit Count: updated at: Sun, 05 Apr 2020 20:01:56 GMT